Date,TemperatureHighF,TemperatureAvgF,TemperatureLowF,DewpointHighF,DewpointAvgF,DewpointLowF,HumidityHigh,HumidityAvg,HumidityLow,PressureMaxIn,PressureMinIn,WindSpeedMaxMPH,WindSpeedAvgMPH,GustSpeedMaxMPH,PrecipitationSumIn
2013-1-1,50.5,47.8,39.7,47.0,44.6,37.0,92,88,79,30.07,29.94,15,3,0,0.13
2013-1-2,39.6,35.5,33.2,37.0,33.4,31.0,93,92,90,30.19,30.04,13,5,0,0.02
2013-1-3,41.7,34.3,27.9,32.0,29.5,26.0,93,83,60,30.37,30.14,14,5,0,0.01
2013-1-4,45.8,33.5,25.2,30.0,25.8,23.0,93,76,42,30.43,30.33,13,2,0,0.02
2013-1-5,48.0,35.9,25.8,37.0,29.3,24.0,93,79,48,30.39,30.24,7,0,0,0.03
2013-1-6,48.6,40.9,37.7,39.0,36.5,33.0,93,85,66,30.30,30.18,10,2,0,0.07
2013-1-7,51.6,38.1,28.3,33.0,30.8,27.0,93,77,46,30.36,30.26,10,2,0,0.08
2013-1-8,56.0,46.1,34.6,46.0,38.8,30.0,85,76,66,30.35,30.24,14,3,0,0.02
2013-1-9,56.4,52.1,48.3,54.0,49.3,45.0,92,90,85,30.39,30.28,9,3,0,0.01
2013-1-10,64.4,58.8,54.9,61.0,56.3,53.0,92,91,88,30.36,30.05,20,6,0,0.03
2013-1-11,65.1,63.7,61.6,63.0,60.6,59.0,92,89,86,30.14,30.05,18,5,0,0.02
2013-1-12,70.1,66.4,64.0,66.0,62.7,60.0,91,87,83,30.09,29.95,20,7,0,0.01
2013-1-13,68.1,61.9,42.7,65.0,59.0,41.0,93,90,84,30.10,29.91,19,8,0,0.01
2013-1-14,42.1,37.5,33.1,40.0,35.5,31.0,93,92,91,30.23,30.09,19,7,0,0.01
2013-1-15,44.5,38.8,35.6,42.0,36.6,33.0,92,91,91,30.13,29.94,12,3,0,0.02
2013-1-16,42.3,38.3,36.6,40.0,36.2,35.0,93,92,91,30.07,29.92,14,4,0,0.00
2013-1-17,38.9,36.9,32.3,37.0,34.7,31.0,93,91,87,30.35,29.84,19,9,0,0.01
2013-1-18,49.7,37.1,29.2,37.0,31.5,25.0,93,82,41,30.55,30.35,13,2,0,0.04
2013-1-19,54.9,40.8,28.6,35.0,30.8,27.0,93,71,43,30.41,30.21,11,2,0,0.03
2013-1-20,58.5,44.7,33.5,41.0,35.9,31.0,92,73,47,30.22,30.13,8,1,0,0.01
2013-1-21,45.4,36.7,29.7,34.0,25.7,19.0,93,68,38,30.23,30.10,16,4,0,0.02
2013-1-22,38.8,31.8,24.8,23.0,17.4,12.0,70,56,42,30.37,30.22,11,3,0,0.03
2013-1-23,54.1,42.8,33.4,39.0,30.2,22.0,73,62,49,30.36,30.18,9,2,0,0.02
2013-1-24,48.1,42.3,36.1,42.0,28.5,18.0,80,59,40,30.35,30.18,15,5,0,0.01
2013-1-25,48.8,42.4,36.1,43.0,31.7,15.0,92,69,41,30.29,30.07,17,4,0,0.01
2013-1-26,53.0,41.7,33.8,40.0,34.2,31.0,93,77,45,30.30,30.16,10,2,0,0.02
2013-1-27,50.5,45.4,40.3,41.0,37.1,34.0,83,73,64,30.36,30.28,12,3,0,0.01
2013-1-28,63.4,53.0,45.6,55.0,46.3,36.0,92,78,65,30.33,30.19,17,5,0,0.00
2013-1-29,67.0,59.3,51.4,63.0,56.4,49.0,92,90,87,30.19,29.82,14,6,0,0.01
2013-1-30,69.1,55.3,37.3,66.0,51.9,29.0,93,88,70,29.90,29.57,23,8,0,0.02
2013-1-31,48.6,38.4,30.2,29.0,26.6,25.0,85,64,43,30.16,29.91,17,6,0,0.01
2013-2-1,42.8,31.4,25.1,34.0,18.9,11.0,85,61,40,30.42,30.11,23,6,0,0.03
2013-2-2,42.3,32.7,24.4,37.0,26.8,17.0,93,79,61,30.33,30.11,11,2,0,0.03
2013-2-3,52.3,42.4,33.7,37.0,31.3,27.0,92,68,40,30.15,30.05,20,6,0,0.01
2013-2-4,48.9,40.1,31.7,34.0,31.3,28.0,91,72,52,30.13,29.96,7,1,0,0.02
2013-2-5,56.8,49.3,43.5,50.0,43.3,33.0,93,80,64,30.04,29.93,8,1,0,0.01
2013-2-6,62.9,47.0,35.1,46.0,37.5,33.0,92,73,37,30.18,30.05,10,1,0,0.01
2013-2-7,51.4,48.9,45.4,47.0,44.1,38.0,96,84,63,30.10,29.93,14,2,0,0.02
2013-2-8,48.7,44.3,34.7,46.0,40.9,31.0,93,87,76,30.24,29.90,23,6,0,0.01
2013-2-9,59.2,43.3,30.1,35.0,31.6,28.0,92,68,34,30.29,30.16,8,2,0,0.01
2013-2-10,56.3,51.5,48.5,54.0,43.2,33.0,92,75,54,30.18,29.93,20,7,0,0.01
2013-2-11,56.9,53.1,44.5,55.0,47.9,38.0,92,83,60,30.16,29.96,10,2,0,0.01
2013-2-12,49.0,44.2,40.9,41.0,38.6,34.0,92,81,58,30.14,29.78,12,2,0,0.01
2013-2-13,46.0,42.4,34.4,43.0,39.5,32.0,93,89,82,30.00,29.68,16,5,0,0.01
2013-2-14,55.0,43.6,32.9,40.0,37.0,31.0,93,79,54,30.08,30.00,9,2,0,0.01
2013-2-15,55.6,45.3,34.9,42.0,36.9,31.0,93,74,49,30.10,30.02,14,5,0,0.04
2013-2-16,39.6,33.5,28.9,31.0,21.1,14.0,76,61,42,30.19,30.05,19,8,0,0.01
2013-2-17,46.0,33.1,18.8,26.0,17.4,13.0,86,55,32,30.29,30.18,9,1,0,0.08
2013-2-18,58.8,46.9,33.5,36.0,28.3,19.0,63,49,41,30.26,29.94,23,7,0,0.01
2013-2-19,49.9,44.9,37.1,44.0,32.8,21.0,93,66,36,30.21,29.91,19,8,0,0.00
2013-2-20,39.1,34.5,27.7,24.0,19.9,6.0,84,57,26,30.25,30.14,14,4,0,0.06
2013-2-21,54.9,42.5,32.1,44.0,29.0,19.0,92,62,29,30.16,29.83,12,3,0,0.00
2013-2-22,47.7,46.3,44.1,46.0,44.3,42.0,93,92,91,30.07,29.92,14,3,0,0.00
2013-2-23,48.6,45.0,36.4,47.0,42.8,34.0,93,91,90,30.00,29.87,5,1,0,0.01
2013-2-24,58.2,43.4,30.8,39.0,34.9,29.0,93,75,39,30.07,29.93,5,1,0,0.04
2013-2-25,55.4,47.7,42.7,43.0,36.6,30.0,92,66,56,29.96,29.66,18,7,0,0.02
2013-2-26,47.5,44.0,39.9,43.0,39.5,34.0,93,84,68,29.78,29.47,25,8,0,0.02
2013-2-27,54.9,44.7,38.9,38.0,34.4,31.0,81,68,48,29.92,29.78,18,6,0,0.03
2013-2-28,40.2,36.8,34.7,35.0,29.7,26.0,90,76,65,30.04,29.87,19,6,0,0.02
2013-3-1,37.8,35.1,32.5,32.0,30.0,27.0,93,82,72,30.05,30.00,10,5,0,0.02
2013-3-2,34.4,32.3,29.9,31.0,29.1,26.0,93,88,77,30.11,29.99,14,8,0,0.01
2013-3-3,41.2,32.3,27.3,26.0,21.6,19.0,86,67,42,30.13,30.07,21,7,0,0.02
2013-3-4,56.5,43.2,28.1,37.0,28.6,21.0,88,59,38,30.14,29.90,15,4,0,1.07
2013-3-5,60.4,50.1,36.0,57.0,45.2,32.0,92,83,56,30.01,29.67,32,9,0,0.22
2013-3-6,41.0,35.6,32.2,32.0,26.3,21.0,82,69,60,30.24,29.99,23,11,0,0.00
2013-3-7,50.1,37.4,27.4,34.0,29.6,25.0,91,75,50,30.32,30.24,12,3,0,0.00
2013-3-8,61.8,43.9,29.1,33.0,29.0,22.0,93,62,23,30.34,30.23,7,1,0,0.00
2013-3-9,63.0,52.3,40.6,38.0,33.5,27.0,68,50,37,30.26,30.07,14,3,0,0.00
2013-3-10,71.8,61.4,52.1,50.0,40.7,35.0,61,47,38,30.11,29.91,27,8,0,0.00
2013-3-11,63.6,52.2,39.8,52.0,46.7,36.0,92,82,62,29.95,29.80,21,7,0,1.26
2013-3-12,52.1,42.1,32.8,36.0,32.9,30.0,89,71,51,30.15,29.95,17,7,0,0.00
2013-3-13,47.6,42.1,36.2,33.0,26.8,22.0,79,56,38,30.33,30.14,23,8,0,0.00
2013-3-14,54.3,39.8,26.9,30.0,20.3,13.0,78,50,20,30.41,30.24,11,3,0,0.00
2013-3-15,73.3,56.8,36.8,48.0,38.8,24.0,73,53,37,30.25,29.96,12,4,0,0.00
2013-3-16,73.4,63.3,53.6,50.0,45.8,44.0,70,54,40,29.99,29.88,17,5,0,0.00
2013-3-17,67.2,60.6,53.3,55.0,51.1,47.0,90,72,58,29.99,29.87,12,3,0,0.00
2013-3-18,68.8,59.6,53.9,62.0,56.1,51.0,92,88,78,29.91,29.74,25,7,0,0.33
2013-3-19,59.1,50.1,40.5,51.0,36.7,24.0,91,64,36,30.13,29.91,16,6,0,0.00
2013-3-20,53.8,45.2,38.5,32.0,25.5,17.0,75,48,30,30.15,29.97,22,5,0,0.00
2013-3-21,44.8,36.4,26.7,29.0,18.9,11.0,76,51,31,30.07,29.93,13,6,0,0.00
2013-3-22,45.8,41.1,35.4,38.0,31.4,23.0,90,69,52,30.03,29.94,9,2,0,0.02
2013-3-23,52.3,47.0,42.2,50.0,44.7,39.0,92,91,82,29.98,29.68,14,3,0,0.45
2013-3-24,60.0,50.5,38.8,54.0,45.7,29.0,92,84,64,29.79,29.48,19,6,0,0.91
2013-3-25,38.6,34.8,32.4,29.0,25.2,23.0,84,68,59,30.12,29.77,23,10,0,0.00
2013-3-26,38.0,34.4,30.8,29.0,27.0,25.0,83,75,64,30.33,30.10,16,8,0,0.00
2013-3-27,50.3,38.8,25.8,32.0,27.6,23.0,91,67,39,30.38,30.27,17,4,0,0.00
2013-3-28,59.9,44.9,31.0,38.0,31.5,28.0,92,65,31,30.36,30.25,12,2,0,0.00
2013-3-29,66.1,51.1,35.0,42.0,36.8,33.0,92,62,35,30.30,30.14,10,2,0,0.00
2013-3-30,67.0,55.2,47.4,54.0,46.8,38.0,91,75,55,30.19,30.00,8,1,0,0.52
2013-3-31,66.3,58.7,54.8,58.0,54.9,52.0,92,87,70,29.99,29.86,12,3,0,0.36
2013-4-1,67.0,57.5,48.2,55.0,48.3,42.0,92,74,42,30.09,29.89,17,4,0,0.02
2013-4-2,57.3,49.6,41.8,43.0,33.9,28.0,80,57,34,30.21,30.08,10,4,0,0.00
2013-4-3,53.4,46.6,42.4,42.0,34.1,25.0,92,64,38,30.19,30.11,8,3,0,0.18
2013-4-4,45.6,43.3,41.4,44.0,41.4,40.0,93,92,92,30.11,29.94,19,5,0,0.90
2013-4-5,63.3,50.6,41.6,47.0,40.7,36.0,93,73,38,30.11,29.97,17,5,0,0.03
2013-4-6,72.3,56.1,38.1,45.0,40.0,36.0,92,60,32,30.16,30.03,13,3,0,0.00
2013-4-7,73.0,63.4,49.5,51.0,48.1,40.0,83,59,42,30.15,30.01,14,3,0,0.00
2013-4-8,75.9,65.1,56.6,59.0,55.2,50.0,90,71,53,30.09,29.99,12,2,0,0.00
2013-4-9,80.1,68.6,57.1,61.0,57.8,54.0,90,70,50,30.16,30.00,17,3,0,0.00
2013-4-10,81.4,71.7,59.1,62.0,59.0,56.0,89,66,48,30.08,29.86,13,4,0,0.00
2013-4-11,73.6,66.4,60.0,66.0,60.2,57.0,91,80,64,29.89,29.59,22,5,0,0.71
2013-4-12,63.2,53.2,43.2,57.0,43.5,37.0,92,73,42,29.97,29.67,16,7,0,0.38
2013-4-13,72.2,58.5,41.9,48.0,43.7,39.0,92,62,33,30.09,29.97,12,2,0,0.00
2013-4-14,58.9,54.3,47.5,53.0,49.1,45.0,91,83,61,30.02,29.86,21,3,0,0.01
2013-4-15,73.0,63.5,55.2,62.0,57.8,53.0,92,82,66,30.07,29.89,9,2,0,0.00
2013-4-16,79.6,70.8,63.4,69.0,64.4,60.0,88,80,68,30.18,30.06,16,4,0,0.00
2013-4-17,83.4,73.9,66.7,68.0,66.0,64.0,90,77,58,30.19,30.03,9,2,0,0.00
2013-4-18,78.9,71.1,63.7,64.0,62.1,60.0,91,74,53,30.05,29.75,24,5,0,0.00
2013-4-19,72.8,51.5,42.0,66.0,45.7,36.0,92,81,60,30.13,29.67,18,7,0,1.48
2013-4-20,60.7,47.6,33.0,41.0,35.1,31.0,92,66,36,30.26,30.14,12,3,0,0.00
2013-4-21,66.7,52.9,37.2,45.0,39.4,35.0,93,65,35,30.33,30.21,12,2,0,0.00
2013-4-22,68.8,59.1,51.6,52.0,46.5,41.0,85,64,50,30.28,30.11,11,3,0,0.00
2013-4-23,72.6,62.0,52.8,55.0,49.3,41.0,87,64,49,30.19,30.02,11,2,0,0.00
2013-4-24,65.1,57.8,46.9,59.0,53.2,43.0,91,85,70,30.23,30.00,14,5,0,0.26
2013-4-25,64.7,50.8,38.7,44.0,38.6,29.0,91,67,29,30.36,30.23,14,3,0,0.00
2013-4-26,72.5,56.1,38.3,47.0,40.6,36.0,91,61,30,30.38,30.22,11,2,0,0.00
2013-4-27,74.0,63.1,54.5,63.0,55.9,47.0,90,78,60,30.30,30.01,15,4,0,0.02
2013-4-28,64.4,60.7,57.1,61.0,57.3,54.0,90,89,87,30.05,29.92,18,3,0,1.57
2013-4-29,72.3,62.5,55.8,59.0,55.6,52.0,91,79,58,30.03,29.93,9,1,0,0.35
2013-4-30,77.1,64.1,50.1,61.0,54.5,47.0,92,74,46,30.04,29.95,7,1,0,0.00
2013-5-1,69.9,66.1,62.4,61.0,59.0,55.0,90,78,69,30.15,30.04,13,2,0,0.00
2013-5-2,66.4,62.6,58.0,60.0,57.4,54.0,88,83,74,30.16,30.07,16,3,0,0.00
2013-5-3,68.7,62.3,58.8,58.0,56.9,56.0,91,83,67,30.07,29.87,17,5,0,0.11
2013-5-4,59.4,45.5,40.7,57.0,43.0,38.0,94,90,86,29.99,29.87,12,4,0,1.76
2013-5-5,57.5,48.0,42.8,51.0,44.9,40.0,92,89,76,29.91,29.80,9,2,0,0.22
2013-5-6,54.5,49.8,47.5,52.0,47.0,45.0,92,90,85,29.92,29.78,12,2,0,0.13
2013-5-7,67.5,55.4,46.0,55.0,49.2,43.0,91,81,57,30.01,29.89,11,2,0,0.17
2013-5-8,75.1,62.6,51.1,61.0,55.1,48.0,91,78,53,30.09,30.00,13,2,0,0.09
2013-5-9,79.0,67.1,53.1,63.0,57.5,50.0,91,74,49,30.14,30.02,10,1,0,0.02
2013-5-10,71.7,65.3,60.4,62.0,59.6,58.0,91,82,67,30.08,29.94,14,2,0,0.06
2013-5-11,72.0,65.7,58.7,66.0,60.8,53.0,90,84,73,30.02,29.92,12,2,0,0.01
2013-5-12,63.2,56.1,46.5,53.0,42.4,34.0,91,63,36,30.16,30.02,14,5,0,0.01
2013-5-13,67.4,54.5,38.5,49.0,41.1,36.0,91,65,37,30.28,30.15,15,2,0,0.01
2013-5-14,78.9,64.4,47.4,59.0,53.0,45.0,91,69,48,30.23,30.09,15,3,0,0.02
2013-5-15,82.4,70.3,58.1,60.0,57.0,54.0,88,65,40,30.18,30.03,10,2,0,0.00
2013-5-16,80.3,70.6,61.5,64.0,59.4,50.0,90,69,37,30.07,29.98,8,2,0,0.00
2013-5-17,72.4,67.1,63.5,68.0,63.5,60.0,90,88,80,30.08,29.98,11,1,0,0.31
2013-5-18,79.0,71.1,65.2,72.0,66.9,61.0,91,86,76,30.05,29.98,10,2,0,0.51
2013-5-19,80.7,71.9,64.6,73.0,67.8,62.0,91,87,72,30.07,29.99,16,3,0,0.09
2013-5-20,81.4,70.8,61.3,71.0,65.6,59.0,91,84,66,30.10,29.99,7,1,0,0.09
2013-5-21,85.6,75.3,64.1,72.0,67.5,61.0,91,78,55,30.04,29.86,11,2,0,0.00
2013-5-22,80.9,73.4,66.1,69.0,66.4,64.0,91,79,60,29.96,29.86,14,3,0,0.01
2013-5-23,79.6,71.2,61.3,67.0,61.7,58.0,92,74,51,30.05,29.93,14,4,0,0.00
2013-5-24,72.1,63.5,54.5,58.0,53.2,48.0,91,71,43,30.26,30.05,22,6,0,0.00
2013-5-25,77.0,62.3,49.3,55.0,49.6,45.0,92,67,33,30.33,30.20,7,1,0,0.00
2013-5-26,83.0,68.0,50.6,61.0,54.2,48.0,92,66,30,30.26,30.15,8,1,0,0.00
2013-5-27,82.8,70.5,56.7,65.0,60.6,54.0,91,73,49,30.21,30.09,12,2,0,0.00
2013-5-28,82.5,74.4,66.4,66.0,62.6,59.0,83,67,55,30.16,30.07,11,2,0,0.00
2013-5-29,84.3,75.8,66.9,69.0,64.2,59.0,78,68,53,30.18,30.07,11,3,0,0.00
2013-5-30,81.2,75.3,70.1,71.0,67.3,64.0,85,76,67,30.18,30.06,16,4,0,0.00
2013-5-31,83.2,76.0,70.2,70.0,67.7,66.0,87,76,60,30.14,30.02,13,5,0,0.00
2013-6-1,82.3,74.4,68.8,74.0,68.6,65.0,90,82,71,30.06,29.95,14,3,0,0.30
2013-6-2,79.2,73.9,67.1,69.0,67.6,65.0,91,81,64,29.98,29.89,10,2,0,0.31
2013-6-3,79.4,71.0,63.2,68.0,63.4,60.0,91,78,57,30.00,29.91,11,2,0,0.00
2013-6-4,85.0,71.9,59.1,68.0,62.6,57.0,92,75,51,30.04,29.95,7,1,0,0.00
2013-6-5,77.0,69.5,64.5,73.0,66.5,62.0,91,90,86,30.00,29.85,10,1,0,0.09
2013-6-6,80.2,72.5,64.2,73.0,67.3,61.0,92,84,73,29.91,29.75,7,1,0,0.10
2013-6-7,75.8,69.9,66.4,70.0,66.9,64.0,92,90,81,29.90,29.73,8,1,0,0.02
2013-6-8,79.8,70.5,62.9,69.0,63.6,60.0,92,80,57,30.06,29.89,7,1,0,0.02
2013-6-9,82.6,72.7,67.4,72.0,68.4,65.0,92,87,67,30.07,29.93,11,2,0,0.04
2013-6-10,84.0,75.0,65.3,70.0,67.6,63.0,92,79,56,30.01,29.93,13,3,0,1.10
2013-6-11,89.1,79.9,71.6,76.0,72.3,69.0,91,78,61,30.07,29.99,11,3,0,0.00
2013-6-12,90.9,81.3,72.4,77.0,72.7,67.0,92,77,45,30.10,29.99,11,2,0,0.00
2013-6-13,87.5,79.8,73.4,77.0,73.6,67.0,90,81,70,30.00,29.80,13,4,0,0.13
2013-6-14,82.1,73.4,64.1,67.0,63.3,60.0,92,73,49,30.02,29.92,13,3,0,0.13
2013-6-15,85.0,73.0,59.2,69.0,63.7,57.0,92,75,50,30.12,30.03,9,1,0,0.00
2013-6-16,86.3,74.9,64.5,74.0,68.4,62.0,92,81,62,30.13,30.00,17,1,0,0.00
2013-6-17,83.1,72.7,68.2,76.0,69.5,65.0,92,90,80,30.04,29.95,9,1,0,0.03
2013-6-18,78.7,72.4,67.9,74.0,68.4,65.0,92,87,75,29.97,29.89,13,4,0,0.02
2013-6-19,85.1,74.6,65.3,71.0,67.5,62.0,92,79,59,30.08,29.96,7,0,0,0.01
2013-6-20,84.5,75.1,64.9,71.0,67.4,62.0,92,78,59,30.21,30.08,12,1,0,0.01
2013-6-21,83.6,74.5,65.0,71.0,66.9,62.0,92,78,58,30.25,30.14,6,1,0,0.01
2013-6-22,83.9,75.4,66.6,69.0,66.0,64.0,92,74,53,30.24,30.09,8,1,0,0.02
2013-6-23,84.8,74.9,64.5,72.0,67.8,62.0,92,79,61,30.19,30.09,10,1,0,0.01
2013-6-24,84.5,75.8,69.0,74.0,70.3,66.0,92,83,66,30.22,30.10,12,2,0,0.00
2013-6-25,85.8,76.6,71.6,75.0,71.8,69.0,92,85,65,30.17,30.04,5,0,0,0.10
2013-6-26,87.7,79.2,70.4,75.0,72.0,67.0,92,79,62,30.09,29.93,14,2,0,0.12
2013-6-27,89.2,79.1,69.5,78.0,72.3,67.0,92,81,58,30.00,29.84,15,3,0,0.00
2013-6-28,84.3,77.8,71.7,75.0,71.0,68.0,91,80,59,29.89,29.72,16,3,0,0.01
2013-6-29,84.6,77.7,70.9,71.0,65.7,59.0,92,69,44,29.76,29.68,11,2,0,0.00
2013-6-30,84.9,74.3,63.6,69.0,63.7,59.0,91,71,43,29.81,29.72,8,1,0,0.01
2013-7-1,82.3,73.2,63.3,69.0,65.3,61.0,92,77,56,29.92,29.78,10,2,0,0.02
2013-7-2,82.8,73.1,63.1,68.0,64.9,61.0,92,77,54,30.06,29.91,10,1,0,0.00
2013-7-3,79.0,72.0,67.4,72.0,68.2,65.0,92,88,75,30.12,30.04,11,1,0,0.06
2013-7-4,76.1,71.1,69.2,72.0,67.9,66.0,92,90,78,30.12,30.03,16,3,0,0.01
2013-7-5,73.8,70.9,68.9,71.0,68.2,66.0,92,91,89,30.15,30.06,15,3,0,0.01
2013-7-6,72.4,70.4,69.4,70.0,67.6,66.0,92,90,89,30.14,30.07,6,0,0,0.02
2013-7-7,83.5,74.9,69.9,74.0,70.5,67.0,92,86,70,30.16,30.09,8,2,0,0.01
2013-7-8,83.6,75.8,70.7,76.0,71.9,68.0,92,87,73,30.20,30.11,7,1,0,0.02
2013-7-9,86.5,78.5,72.8,77.0,73.0,70.0,92,83,69,30.21,30.08,7,1,0,0.00
2013-7-10,86.8,78.8,72.8,77.0,73.6,70.0,92,84,65,30.11,29.95,9,1,0,0.01
2013-7-11,84.1,74.5,68.6,77.0,70.5,65.0,92,87,76,30.06,29.89,6,1,0,0.01
2013-7-12,83.4,75.2,70.0,74.0,69.3,65.0,92,82,65,29.99,29.92,14,3,0,0.01
2013-7-13,82.3,72.8,62.2,73.0,67.9,60.0,93,84,70,30.07,29.96,8,2,0,0.00
2013-7-14,83.5,76.0,71.0,75.0,71.4,69.0,92,86,69,30.17,30.05,8,2,0,0.01
2013-7-15,84.7,77.7,72.9,73.0,71.5,70.0,92,82,65,30.28,30.17,9,2,0,0.00
2013-7-16,86.6,78.2,71.7,76.0,71.6,69.0,93,81,60,30.34,30.25,11,2,0,0.01
2013-7-17,90.4,79.7,68.6,78.0,72.8,66.0,93,80,60,30.32,30.18,7,0,0,0.00
2013-7-18,87.1,77.8,70.3,75.0,71.2,67.0,92,81,61,30.25,30.07,6,1,0,0.00
2013-7-19,89.6,78.7,69.0,75.0,71.4,67.0,92,80,57,30.15,29.99,8,1,0,0.00
2013-7-20,83.4,76.5,70.0,76.0,72.3,68.0,92,87,73,30.06,29.93,9,1,0,0.00
2013-7-21,83.6,74.4,69.9,76.0,71.1,67.0,92,89,75,30.05,29.97,14,2,0,0.00
2013-7-22,78.6,73.1,68.8,74.0,69.7,66.0,92,89,78,30.02,29.92,10,2,0,0.01
2013-7-23,75.0,71.5,69.8,72.0,68.8,67.0,93,91,89,30.00,29.89,8,1,0,0.01
2013-7-24,82.5,73.8,68.0,75.0,70.2,65.0,93,88,74,29.95,29.87,8,1,0,0.00
2013-7-25,82.8,74.8,67.7,71.0,67.1,63.0,93,78,54,30.05,29.91,11,3,0,0.00
2013-7-26,84.9,73.8,62.2,71.0,66.7,60.0,93,80,54,30.09,30.01,6,1,0,0.00
2013-7-27,81.7,74.5,68.1,71.0,68.1,65.0,93,81,58,30.01,29.93,10,1,0,0.01
2013-7-28,82.8,74.8,69.2,72.0,69.0,66.0,92,83,64,30.09,29.95,7,1,0,0.01
2013-7-29,79.5,70.7,64.5,67.0,64.2,62.0,93,81,60,30.20,30.08,7,0,0,0.02
2013-7-30,88.4,74.4,60.9,75.0,66.6,59.0,93,78,51,30.23,30.10,7,1,0,0.01
2013-7-31,82.8,73.9,69.7,76.0,70.6,67.0,92,89,78,30.15,29.97,15,2,0,0.01
2013-8-1,84.7,75.0,68.6,74.0,70.1,66.0,93,85,68,30.03,29.97,12,3,0,0.00
2013-8-2,86.5,75.1,63.8,72.0,67.9,61.0,93,79,56,30.07,30.00,5,1,0,0.01
2013-8-3,82.3,73.9,65.6,76.0,70.3,63.0,93,88,76,30.10,30.03,9,1,0,0.00
2013-8-4,84.6,76.7,70.8,75.0,71.0,68.0,93,83,65,30.11,30.04,13,3,0,0.01
2013-8-5,80.6,73.2,67.6,71.0,67.2,65.0,93,82,64,30.11,30.01,4,0,0,0.00
2013-8-6,79.0,73.3,69.5,75.0,70.5,67.0,93,91,83,30.06,29.97,2,0,0,0.01
2013-8-7,86.8,75.4,70.9,78.0,71.9,69.0,93,89,69,30.04,29.96,11,1,0,0.00
2013-8-8,87.9,75.4,68.5,79.0,71.5,66.0,93,88,73,30.06,29.97,9,1,0,0.00
2013-8-9,88.5,78.4,71.4,78.0,73.2,68.0,93,84,67,30.10,30.01,9,1,0,0.00
2013-8-10,82.7,75.5,72.0,77.0,72.5,70.0,93,90,75,30.16,30.08,10,1,0,0.00
2013-8-11,87.7,77.6,69.9,78.0,72.7,67.0,93,85,67,30.19,30.09,8,1,0,0.00
2013-8-12,87.2,78.1,71.7,78.0,73.6,69.0,93,86,69,30.15,30.01,9,1,0,0.00
2013-8-13,83.6,77.2,71.9,75.0,72.4,70.0,93,85,69,30.03,29.93,13,3,0,0.00
2013-8-14,80.3,72.9,66.9,72.0,68.0,62.0,93,85,66,30.05,29.96,9,2,0,0.00
2013-8-15,74.8,68.3,61.7,69.0,64.3,60.0,93,87,77,30.08,30.02,12,1,0,0.00
2013-8-16,69.7,66.7,64.3,65.0,62.9,61.0,93,87,82,30.11,30.04,7,1,0,0.00
2013-8-17,68.0,65.8,63.5,65.0,63.4,62.0,93,92,89,30.14,30.06,11,1,0,0.01
2013-8-18,74.7,69.4,65.3,70.0,66.4,63.0,93,90,80,30.18,30.09,7,1,0,0.01
2013-8-19,82.3,73.3,68.4,74.0,69.8,66.0,93,89,74,30.14,30.04,7,1,0,0.00
2013-8-20,81.5,75.2,68.6,75.0,71.6,66.0,93,89,77,30.17,30.09,7,1,0,0.00
2013-8-21,85.6,75.3,70.3,75.0,71.6,68.0,93,88,68,30.21,30.13,15,1,0,0.00
2013-8-22,84.2,75.3,68.6,76.0,71.3,66.0,94,88,71,30.20,30.07,7,0,0,0.01
2013-8-23,88.1,76.9,68.1,76.0,71.3,65.0,93,83,61,30.13,30.02,7,1,0,0.00
2013-8-24,84.5,76.5,69.0,74.0,71.3,67.0,93,84,69,30.23,30.08,8,1,0,0.00
2013-8-25,81.7,74.5,67.7,71.0,67.4,65.0,92,79,59,30.36,30.23,10,1,0,0.00
2013-8-26,83.0,71.8,60.0,69.0,64.0,58.0,94,78,55,30.34,30.18,7,0,0,0.00
2013-8-27,85.3,72.7,60.9,71.0,65.7,59.0,93,80,58,30.21,30.09,6,1,0,0.00
2013-8-28,87.0,75.3,65.2,74.0,69.0,63.0,93,82,60,30.12,30.04,10,1,0,0.00
2013-8-29,87.9,77.6,68.0,75.0,71.2,66.0,93,82,61,30.10,30.00,11,2,0,0.00
2013-8-30,90.5,79.2,70.3,78.0,73.4,68.0,93,83,61,30.04,29.95,7,1,0,0.00
2013-8-31,89.2,78.6,71.0,78.0,73.4,69.0,93,85,62,29.99,29.89,7,1,0,0.00
2013-9-1,87.5,78.9,73.3,76.0,72.9,71.0,93,83,61,29.97,29.88,10,2,0,0.00
2013-9-2,82.7,74.4,68.0,74.0,69.9,65.0,93,86,70,30.04,29.89,19,2,0,0.03
2013-9-3,85.2,76.6,68.6,74.0,70.3,67.0,93,82,57,30.03,29.93,14,2,0,0.01
2013-9-4,84.7,72.9,62.5,70.0,65.9,60.0,93,80,52,30.14,30.02,8,1,0,0.01
2013-9-5,85.2,72.1,61.0,72.0,65.4,59.0,93,81,54,30.19,30.12,6,0,0,0.02
2013-9-6,86.6,73.8,63.3,74.0,67.3,61.0,93,81,56,30.18,30.07,6,0,0,0.01
2013-9-7,87.3,75.4,66.9,74.0,69.1,64.0,93,82,57,30.14,30.04,6,1,0,0.01
2013-9-8,88.7,75.9,64.1,75.0,69.5,62.0,93,82,58,30.07,29.98,7,0,0,0.01
2013-9-9,88.6,76.9,68.5,76.0,71.0,66.0,93,83,59,30.12,30.02,10,1,0,0.01
2013-9-10,86.6,77.8,70.4,74.0,71.4,68.0,93,82,60,30.22,30.12,7,1,0,0.00
2013-9-11,87.3,76.4,66.8,73.0,69.3,65.0,93,80,53,30.25,30.13,7,0,0,0.01
2013-9-12,87.7,75.7,65.2,73.0,68.3,63.0,93,79,54,30.14,29.95,7,1,0,0.00
2013-9-13,79.3,71.8,63.0,70.0,63.2,56.0,93,76,47,29.99,29.92,14,3,0,0.00
2013-9-14,77.7,64.0,51.5,62.0,56.1,50.0,93,77,51,30.07,29.98,8,1,0,0.00
2013-9-15,82.9,67.4,56.2,68.0,61.4,54.0,93,83,48,30.16,30.07,9,1,0,0.00
2013-9-16,84.5,69.7,57.8,70.0,62.2,56.0,93,79,50,30.18,30.11,6,1,0,0.00
2013-9-17,81.1,71.6,63.2,71.0,66.1,61.0,93,83,69,30.21,30.11,12,2,0,0.00
2013-9-18,79.7,71.4,65.0,69.0,64.9,61.0,88,80,67,30.22,30.12,11,2,0,0.00
2013-9-19,82.4,71.9,63.4,70.0,65.6,61.0,93,81,60,30.20,30.08,6,1,0,0.00
2013-9-20,83.1,73.1,63.0,69.0,65.8,61.0,93,79,58,30.09,29.89,8,2,0,0.01
2013-9-21,72.3,67.9,60.5,69.0,65.4,58.0,93,92,87,29.90,29.77,11,4,0,0.02
2013-9-22,75.5,63.1,51.8,61.0,56.2,50.0,94,80,49,29.92,29.85,10,2,0,0.04
2013-9-23,78.8,65.1,51.8,64.0,58.6,50.0,93,81,54,30.00,29.91,8,1,0,0.01
2013-9-24,69.8,66.8,64.7,67.0,64.3,62.0,93,92,84,30.01,29.88,9,1,0,0.01
2013-9-25,75.3,67.8,64.7,70.0,65.1,62.0,93,91,82,29.90,29.82,4,0,0,0.01
2013-9-26,79.7,68.9,63.0,67.0,64.0,61.0,93,85,61,30.03,29.89,6,0,0,0.01
2013-9-27,78.8,67.7,59.2,66.0,61.0,57.0,93,81,50,30.16,30.03,9,0,0,0.00
2013-9-28,75.5,64.6,55.1,61.0,57.8,53.0,93,80,55,30.23,30.11,10,1,0,0.00
2013-9-29,72.9,63.5,54.5,61.0,57.7,53.0,93,82,63,30.16,30.04,15,1,0,0.01
2013-9-30,73.4,65.4,61.1,64.0,60.2,58.0,93,83,68,30.10,30.00,5,1,0,0.00
2013-10-1,81.8,68.3,58.2,70.0,63.3,56.0,93,85,63,30.16,30.05,9,1,0,0.00
2013-10-2,81.6,70.2,60.3,71.0,64.5,58.0,93,83,58,30.18,30.08,0,0,0,0.00
2013-10-3,80.3,72.1,65.4,68.0,65.7,63.0,93,82,61,30.15,30.06,6,0,0,0.00
2013-10-4,82.7,71.6,61.8,71.0,66.3,60.0,93,84,65,30.16,30.09,7,1,0,0.00
2013-10-5,83.8,72.7,62.4,71.0,66.4,60.0,93,82,62,30.13,30.00,10,2,0,0.00
2013-10-6,78.4,71.2,56.0,70.0,66.6,54.0,93,85,72,30.01,29.85,17,3,0,0.00
2013-10-7,67.4,59.0,52.3,54.0,51.4,50.0,93,78,54,30.07,29.93,14,4,0,0.00
2013-10-8,74.4,62.3,50.4,64.0,54.7,47.0,89,77,59,30.12,30.03,9,2,0,0.00
2013-10-9,75.4,66.1,59.8,62.0,56.7,50.0,90,73,58,30.21,30.11,11,2,0,0.00
2013-10-10,78.4,67.3,59.1,64.0,60.9,57.0,93,81,57,30.17,30.05,6,1,0,0.00
2013-10-11,79.3,64.4,53.5,63.0,57.6,51.0,93,81,51,30.12,30.02,7,1,0,0.00
2013-10-12,78.8,64.1,52.5,64.0,57.9,50.0,93,82,54,30.14,30.05,9,1,0,0.01
2013-10-13,78.9,66.1,55.3,64.0,59.2,53.0,93,80,54,30.24,30.13,9,1,0,0.00
2013-10-14,77.1,65.2,54.1,65.0,59.7,52.0,93,83,61,30.25,30.11,7,1,0,0.00
2013-10-15,70.0,64.4,59.4,62.0,60.2,57.0,93,86,71,30.16,30.04,6,1,0,0.00
2013-10-16,70.1,64.3,60.5,66.0,61.5,59.0,93,90,81,30.07,29.95,8,1,0,0.06
2013-10-17,66.1,62.5,52.6,63.0,60.1,51.0,93,92,90,30.03,29.91,10,3,0,0.01
2013-10-18,65.3,54.8,48.5,55.0,50.1,46.0,93,85,62,30.10,29.98,10,1,0,0.01
2013-10-19,66.7,56.3,48.4,57.0,51.8,46.0,93,86,68,30.05,29.95,14,3,0,0.00
2013-10-20,64.9,49.7,38.2,47.0,41.3,35.0,93,77,38,30.11,30.03,6,1,0,0.00
2013-10-21,69.6,53.7,39.9,52.0,45.6,38.0,93,77,40,30.13,30.02,6,0,0,0.00
2013-10-22,65.0,57.6,49.7,56.0,52.7,48.0,93,84,67,30.05,29.90,9,1,0,0.00
2013-10-23,56.1,49.0,39.3,49.0,41.7,37.0,93,78,50,30.13,29.90,18,5,0,0.00
2013-10-24,61.0,47.6,35.5,45.0,39.8,34.0,93,76,46,30.29,30.12,15,3,0,0.00
2013-10-25,51.9,41.0,30.4,37.0,31.1,28.0,93,70,41,30.47,30.29,13,2,0,0.01
2013-10-26,60.9,44.4,29.3,40.0,33.0,28.0,93,69,32,30.36,30.17,8,1,0,0.00
2013-10-27,67.4,57.1,44.9,55.0,48.3,40.0,91,73,57,30.18,30.10,7,1,0,0.00
2013-10-28,63.8,58.3,54.0,59.0,55.4,52.0,93,90,80,30.27,30.13,6,0,0,0.03
2013-10-29,74.6,61.0,49.6,63.0,56.4,47.0,93,85,63,30.32,30.22,13,1,0,0.00
2013-10-30,75.9,65.6,57.4,62.0,58.1,55.0,93,78,53,30.30,30.13,10,1,0,0.00
2013-10-31,71.4,66.3,61.7,67.0,61.3,56.0,92,84,76,30.15,29.76,16,5,0,0.05
2013-11-1,68.3,61.5,51.7,64.0,54.4,47.0,93,79,47,29.89,29.76,12,2,0,0.12
2013-11-2,63.2,53.3,43.4,50.0,43.3,38.0,93,72,39,30.14,29.87,16,4,0,0.01
2013-11-3,61.6,47.9,38.2,43.0,39.5,36.0,93,75,42,30.31,30.14,11,2,0,0.01
2013-11-4,64.9,52.2,37.3,43.0,40.1,36.0,93,66,39,30.40,30.28,14,2,0,0.00
2013-11-5,61.7,53.6,47.9,47.0,40.6,38.0,74,62,54,30.43,30.30,12,2,0,0.00
2013-11-6,71.1,61.8,52.1,61.0,55.1,42.0,91,79,63,30.30,30.08,12,4,0,0.00
2013-11-7,64.4,49.9,38.1,61.0,42.6,32.0,93,77,47,30.32,30.07,24,7,0,0.01
2013-11-8,58.3,42.3,30.7,39.0,33.6,29.0,93,74,39,30.39,30.26,7,1,0,0.06
2013-11-9,58.0,47.7,36.7,45.0,38.7,34.0,93,74,46,30.34,30.22,11,0,0,0.00
2013-11-10,68.0,53.5,43.3,47.0,42.3,38.0,93,69,38,30.34,30.25,13,2,0,0.00
2013-11-11,68.4,48.6,35.0,40.0,33.6,21.0,93,64,18,30.33,30.18,8,0,0,0.00
2013-11-12,49.7,41.7,32.1,44.0,30.1,15.0,85,65,41,30.54,30.19,25,9,0,0.00
2013-11-13,46.4,33.8,24.6,23.0,18.3,13.0,84,56,29,30.64,30.47,12,2,0,0.00
2013-11-14,56.5,38.4,22.2,31.0,22.3,16.0,92,59,22,30.48,30.26,7,1,0,0.00
2013-11-15,55.1,49.4,42.4,50.0,41.0,26.0,92,74,47,30.25,30.11,7,1,0,0.11
2013-11-16,63.7,57.0,49.8,59.0,54.0,47.0,95,89,85,30.18,30.07,16,4,0,0.12
2013-11-17,69.7,64.5,60.7,67.0,61.8,58.0,93,91,88,30.08,29.88,18,5,0,0.08
2013-11-18,69.7,58.7,49.1,67.0,43.5,33.0,92,59,33,30.17,29.94,18,7,0,0.15
2013-11-19,54.1,45.9,36.6,35.0,29.3,24.0,84,54,33,30.23,30.12,14,4,0,0.00
2013-11-20,58.4,48.0,33.4,39.0,34.5,30.0,91,61,47,30.27,30.15,18,3,0,0.00
2013-11-21,60.2,55.2,50.9,54.0,46.9,39.0,85,74,62,30.34,30.25,15,3,0,0.00
2013-11-22,61.3,56.8,50.9,59.0,54.1,49.0,93,91,84,30.31,30.21,12,2,0,0.02
2013-11-23,50.6,44.2,33.3,48.0,38.6,20.0,93,81,54,30.39,30.23,21,10,0,0.02
2013-11-24,41.1,30.9,23.4,23.0,17.2,12.0,81,59,35,30.56,30.39,17,5,0,0.00
2013-11-25,40.5,35.3,27.7,35.0,22.5,15.0,93,62,41,30.43,30.14,10,3,0,0.12
2013-11-26,45.8,40.6,35.2,44.0,38.6,34.0,98,92,92,30.14,29.77,24,7,0,0.13
2013-11-27,34.7,31.3,24.4,33.0,22.8,14.0,94,71,58,30.33,29.86,29,11,0,0.03
2013-11-28,44.4,28.6,17.7,24.0,18.2,14.0,90,68,33,30.47,30.33,5,0,0,0.03
2013-11-29,54.1,35.3,21.4,31.0,25.0,19.0,92,70,35,30.56,30.46,7,1,0,0.03
2013-11-30,52.1,42.6,30.6,32.0,30.1,28.0,91,63,41,30.52,30.30,16,2,0,0.07
2013-12-1,55.7,45.0,30.5,41.0,35.1,28.0,92,69,49,30.30,30.00,6,1,0,0.00
2013-12-2,53.9,50.0,45.4,52.0,47.1,41.0,93,90,74,30.00,29.79,9,1,0,0.09
2013-12-3,57.9,53.9,49.6,56.0,51.6,47.0,93,92,91,29.86,29.79,10,2,0,0.09
2013-12-4,70.6,64.2,57.7,64.0,60.6,55.0,93,88,77,29.98,29.85,18,5,0,0.00
2013-12-5,75.0,67.3,52.1,68.0,64.6,50.0,93,91,77,30.04,29.93,12,3,0,0.00
2013-12-6,50.9,41.5,35.3,49.0,39.7,34.0,94,93,92,30.23,29.96,16,5,0,0.20
2013-12-7,35.5,33.8,31.6,34.0,32.1,30.0,94,93,93,30.41,30.23,16,7,0,0.20
2013-12-8,49.4,44.9,35.2,47.0,43.0,33.0,94,93,92,30.28,30.07,9,2,0,0.71
2013-12-9,48.6,43.4,38.0,47.0,41.6,36.0,94,93,92,30.19,30.05,9,3,0,0.05
2013-12-10,39.5,33.9,27.3,36.0,30.6,26.0,94,88,68,30.37,30.03,18,6,0,0.43
2013-12-11,51.8,35.0,23.8,36.0,27.3,22.0,100,76,50,30.45,30.36,8,1,0,0.00
2013-12-12,41.4,31.6,23.4,28.0,20.5,13.0,86,66,39,30.55,30.43,16,5,0,0.00
2013-12-13,46.2,35.9,23.1,34.0,26.2,20.0,93,70,47,30.43,30.12,7,1,0,0.00
2013-12-14,53.4,47.4,38.1,52.0,43.2,30.0,94,86,59,30.14,29.81,15,5,0,0.64
2013-12-15,37.9,34.2,30.5,35.0,31.3,28.0,93,89,85,30.26,29.98,16,7,0,0.00
2013-12-16,53.3,39.3,27.2,36.0,30.9,26.0,94,75,49,30.28,30.17,9,2,0,0.00
2013-12-17,60.7,48.6,39.4,40.0,35.6,31.0,76,62,45,30.29,30.11,15,4,0,0.00
2013-12-18,53.0,40.7,28.6,30.0,25.9,20.0,89,59,30,30.39,30.27,7,1,0,0.00
2013-12-19,60.3,46.1,30.7,34.0,30.5,27.0,88,58,34,30.30,30.14,11,2,0,0.00
2013-12-20,65.3,57.9,50.5,58.0,48.0,31.0,88,70,47,30.15,30.04,13,5,0,0.00
2013-12-21,71.6,65.3,60.4,67.0,62.7,58.0,93,91,85,30.04,29.80,20,7,0,0.40
2013-12-22,71.2,56.8,53.3,67.0,54.5,51.0,93,92,86,30.09,29.79,20,3,0,0.03
2013-12-23,53.9,40.1,31.0,52.0,37.0,27.0,94,88,79,30.40,30.08,20,8,0,0.05
2013-12-24,35.3,29.0,24.3,27.0,22.1,17.0,90,76,56,30.52,30.39,16,6,0,0.00
2013-12-25,47.9,32.4,19.4,30.0,23.8,17.0,93,73,46,30.43,30.32,9,1,0,0.00
2013-12-26,49.6,35.0,25.1,34.0,28.8,23.0,94,80,54,30.39,30.32,8,1,0,0.00
2013-12-27,52.7,36.6,24.5,33.0,27.7,23.0,93,74,39,30.47,30.36,5,1,0,0.00
2013-12-28,42.8,39.0,32.8,38.0,35.3,30.0,93,87,73,30.38,29.96,15,3,0,0.66
2013-12-29,51.7,43.2,39.5,44.0,39.8,37.0,94,88,68,30.07,29.91,8,2,0,1.12
2013-12-30,44.7,38.3,34.2,42.0,35.8,32.0,94,90,84,30.27,30.08,9,4,0,0.00
2013-12-31,40.8,33.7,29.9,32.0,29.4,28.0,93,85,64,30.47,30.26,10,3,0,0.00
2014-1-1,48.9,38.2,28.0,40.0,32.9,27.0,94,82,61,30.36,30.08,8,2,0,0.00
2014-1-2,48.1,38.0,22.3,46.0,34.1,13.0,93,86,68,30.28,29.88,23,9,0,0.39